FW0864 Weather Reports


Display with metric or nautical units.
time (UTC)temp
F
wind
direction
speed
MPH
gust
MPH
rain 1hr
in
rain 24hr
in
rain mn
in
humidity
%
barometer
mb
20260902040038 69 321 4.0 13.0 0.00 0.00 0.00 51 1012.2
20260902035536 70 328 7.0 15.0 0.00 0.00 0.00 50 1012.1
20260902035038 70 272 6.0 19.0 0.00 0.00 0.00 49 1012.0
20260902034537 71 335 7.0 19.0 0.00 0.00 0.00 49 1011.8
20260902034037 71 312 5.0 12.0 0.00 0.00 0.00 49 1011.7
20260902033536 72 266 5.0 10.0 0.00 0.00 0.00 48 1011.6
20260902033036 72 35 3.0 10.0 0.00 0.00 0.00 47 1011.5
20260902032540 72 308 4.0 10.0 0.00 0.00 0.00 47 1011.4
20260902032035 73 311 3.0 9.0 0.00 0.00 0.00 46 1011.4
20260902031542 73 310 2.0 10.0 0.00 0.00 0.00 45 1011.2
20260902031036 73 312 4.0 10.0 0.00 0.00 0.00 44 1011.1
20260902030536 73 347 1.0 9.0 0.00 0.00 0.00 44 1011.1
20260902030037 73 313 3.0 9.0 0.00 0.00 0.00 44 1011.1
20260902025535 73 324 1.0 9.0 0.00 0.00 0.00 44 1011.0
20260902025035 73 272 3.0 9.0 0.00 0.00 0.00 44 1010.9
20260902024536 73 269 4.0 12.0 0.00 0.00 0.00 43 1010.9
20260902024034 73 276 8.0 12.0 0.00 0.00 0.00 42 1010.8
20260902023534 74 228 7.0 12.0 0.00 0.00 0.00 41 1010.8
20260902023034 75 304 6.0 11.0 0.00 0.00 0.00 40 1010.7
20260902022537 75 253 5.0 14.0 0.00 0.00 0.00 39 1010.6
20260902022034 76 227 6.0 14.0 0.00 0.00 0.00 37 1010.6
20260902021543 77 285 6.0 12.0 0.00 0.00 0.00 35 1010.5
20260902021035 78 314 3.0 5.0 0.00 0.00 0.00 36 1010.5
20260902020534 78 333 2.0 5.0 0.00 0.00 0.00 36 1010.4
20260902020039 78 14 1.0 6.0 0.00 0.00 0.00 36 1010.3
20260902015533 78 345 1.0 5.0 0.00 0.00 0.00 35 1010.3
20260902015034 79 316 1.0 5.0 0.00 0.00 0.00 35 1010.4
20260902014546 79 295 3.0 5.0 0.00 0.00 0.00 35 1010.4
20260902014035 79 308 2.0 5.0 0.00 0.00 0.00 35 1010.3
20260902013533 79 335 2.0 5.0 0.00 0.00 0.00 35 1010.3
20260902013033 79 335 3.0 5.0 0.00 0.00 0.00 35 1010.2
20260902012532 80 322 2.0 6.0 0.00 0.00 0.00 35 1010.2
20260902012032 80 32 3.0 6.0 0.00 0.00 0.00 35 1010.2
20260902011535 80 311 3.0 8.0 0.00 0.00 0.00 35 1010.2
20260902011032 80 347 3.0 8.0 0.00 0.00 0.00 35 1010.2
20260902010531 80 297 3.0 8.0 0.00 0.00 0.00 35 1010.2
20260902010032 79 290 4.0 12.0 0.00 0.00 0.00 35 1010.3
20260902005536 80 293 6.0 12.0 0.00 0.00 0.00 35 1010.3
20260902005032 80 324 3.0 9.0 0.00 0.00 0.00 35 1010.3
20260902004532 80 272 2.0 8.0 0.00 0.00 0.00 35 1010.4
20260902004031 80 332 3.0 8.0 0.00 0.00 0.00 34 1010.3
20260902003531 80 324 4.0 7.0 0.00 0.00 0.00 34 1010.3
20260902003032 81 302 2.0 8.0 0.00 0.00 0.00 34 1010.3
20260902002530 80 276 3.0 9.0 0.00 0.00 0.00 33 1010.2
20260902002032 81 243 5.0 9.0 0.00 0.00 0.00 33 1010.2
20260902001531 81 272 3.0 8.0 0.00 0.00 0.00 33 1010.2
20260902001030 81 336 3.0 9.0 0.00 0.00 0.00 33 1010.2
20260902000530 82 262 5.0 9.0 0.00 0.00 0.00 33 1010.2
20260902000039 82 324 2.0 7.0 0.00 0.00 0.00 33 1010.2
20260901235531 82 102 1.0 7.0 0.00 0.00 0.00 32 1010.3
20260901235029 82 216 2.0 9.0 0.00 0.00 0.00 32 1010.3
20260901234546 81 264 2.0 10.0 0.00 0.00 0.00 33 1010.4
20260901234028 81 258 5.0 11.0 0.00 0.00 0.00 33 1010.5
20260901233528 81 223 5.0 11.0 0.00 0.00 0.00 33 1010.5
20260901233028 81 295 2.0 9.0 0.00 0.00 0.00 33 1010.6
20260901232532 81 232 2.0 11.0 0.00 0.00 0.00 33 1010.7
20260901232028 81 162 3.0 11.0 0.00 0.00 0.00 33 1010.7
20260901231533 81 274 1.0 9.0 0.00 0.00 0.00 34 1010.8
20260901231027 80 272 3.0 9.0 0.00 0.00 0.00 34 1010.8
20260901230527 81 273 5.0 8.0 0.00 0.00 0.00 33 1010.8
20260901230030 80 276 4.0 9.0 0.00 0.00 0.00 35 1010.8
20260901225531 80 281 2.0 12.0 0.00 0.00 0.00 34 1010.9
20260901225026 81 274 5.0 12.0 0.00 0.00 0.00 34 1010.9
20260901224525 81 256 2.0 8.0 0.00 0.00 0.00 34 1010.9
20260901224024 80 354 2.0 10.0 0.00 0.00 0.00 35 1010.9
20260901223524 79 148 1.0 11.0 0.00 0.00 0.00 35 1010.9
20260901223024 79 271 4.0 11.0 0.00 0.00 0.00 36 1010.9
20260901222524 79 275 3.0 8.0 0.00 0.00 0.00 36 1011.1
20260901222023 79 266 3.0 8.0 0.00 0.00 0.00 36 1011.2
20260901221556 80 172 3.0 8.0 0.00 0.00 0.00 35 1011.1
20260901221023 80 62 0.0 8.0 0.00 0.00 0.00 34 1011.3
20260901220523 79 260 3.0 10.0 0.00 0.00 0.00 35 1011.4
20260901220023 80 232 7.0 10.0 0.00 0.00 0.00 35 1011.4
20260901215522 79 314 2.0 6.0 0.00 0.00 0.00 35 1011.4
20260901215027 78 255 1.0 8.0 0.00 0.00 0.00 38 1011.5
20260901214520 78 332 3.0 8.0 0.00 0.00 0.00 37 1011.6
20260901214023 79 244 2.0 8.0 0.00 0.00 0.00 36 1011.7
20260901213520 79 193 5.0 8.0 0.00 0.00 0.00 36 1011.8
20260901213019 78 158 1.0 10.0 0.00 0.00 0.00 36 1011.8
20260901212518 78 274 3.0 9.0 0.00 0.00 0.00 38 1011.9
20260901212021 78 349 3.0 9.0 0.00 0.00 0.00 39 1011.9
20260901211527 78 220 4.0 9.0 0.00 0.00 0.00 38 1011.9
20260901211017 77 226 1.0 9.0 0.00 0.00 0.00 40 1012.0
20260901210517 77 249 3.0 11.0 0.00 0.00 0.00 40 1012.1
20260901210019 77 246 3.0 11.0 0.00 0.00 0.00 39 1012.1
20260901205518 77 253 3.0 10.0 0.00 0.00 0.00 39 1012.1
20260901205016 77 258 5.0 9.0 0.00 0.00 0.00 39 1012.1
20260901204518 77 152 3.0 14.0 0.00 0.00 0.00 40 1012.2
20260901204015 76 283 6.0 14.0 0.00 0.00 0.00 40 1012.2
20260901203514 76 266 4.0 11.0 0.00 0.00 0.00 40 1012.3
20260901203029 76 266 6.0 11.0 0.00 0.00 0.00 40 1012.3
20260901202513 76 185 4.0 8.0 0.00 0.00 0.00 41 1012.3
20260901202017 76 255 4.0 9.0 0.00 0.00 0.00 42 1012.4
20260901201529 76 278 2.0 6.0 0.00 0.00 0.00 42 1012.3
20260901201012 75 68 1.0 8.0 0.00 0.00 0.00 45 1012.3
20260901200511 75 253 4.0 10.0 0.00 0.00 0.00 44 1012.5
20260901200012 75 255 3.0 8.0 0.00 0.00 0.00 45 1012.5
20260901195511 76 287 3.0 7.0 0.00 0.00 0.00 44 1012.5
20260901195012 75 210 1.0 4.0 0.00 0.00 0.00 43 1012.6
20260901194509 74 64 1.0 6.0 0.00 0.00 0.00 45 1012.7
20260901194011 74 31 3.0 6.0 0.00 0.00 0.00 46 1012.8
20260901193507 74 287 2.0 7.0 0.00 0.00 0.00 46 1012.8
20260901193007 73 244 2.0 7.0 0.00 0.00 0.00 46 1012.8
20260901192506 73 235 1.0 6.0 0.00 0.00 0.00 47 1012.9
20260901192004 73 285 2.0 8.0 0.00 0.00 0.00 46 1013.0
20260901191509 73 101 1.0 10.0 0.00 0.00 0.00 48 1013.0
20260901191006 72 249 5.0 10.0 0.00 0.00 0.00 49 1013.0
20260901190501 72 282 1.0 6.0 0.00 0.00 0.00 49 1013.1
20260901190002 72 285 3.0 8.0 0.00 0.00 0.00 49 1013.1
20260901185601 71 91 2.0 9.0 0.00 0.00 0.00 50 1013.2
20260901185100 71 264 4.0 9.0 0.00 0.00 0.00 50 1013.1
20260901184606 71 171 2.0 9.0 0.00 0.00 0.00 52 1013.1
20260901184057 70 268 5.0 9.0 0.00 0.00 0.00 51 1013.2
20260901183556 71 343 0.0 11.0 0.00 0.00 0.00 50 1013.2
20260901183058 72 318 3.0 11.0 0.00 0.00 0.00 49 1013.2
20260901182554 72 145 2.0 8.0 0.00 0.00 0.00 50 1013.3
20260901182053 70 16 2.0 10.0 0.00 0.00 0.00 53 1013.4
20260901181553 69 302 2.0 12.0 0.00 0.00 0.00 54 1013.5
20260901181050 69 349 4.0 12.0 0.00 0.00 0.00 53 1013.6
20260901180554 68 279 4.0 9.0 0.00 0.00 0.00 52 1013.7
20260901180048 68 354 3.0 12.0 0.00 0.00 0.00 54 1013.6
20260901175549 69 253 6.0 12.0 0.00 0.00 0.00 54 1013.6
20260901175046 68 264 2.0 9.0 0.00 0.00 0.00 56 1013.6
20260901174546 68 256 5.0 9.0 0.00 0.00 0.00 56 1013.5
20260901174044 68 278 3.0 8.0 0.00 0.00 0.00 56 1013.4
20260901173543 68 340 3.0 8.0 0.00 0.00 0.00 58 1013.4
20260901173042 67 314 2.0 10.0 0.00 0.00 0.00 58 1013.4
20260901172541 66 47 2.0 10.0 0.00 0.00 0.00 59 1013.4
20260901172040 66 333 4.0 9.0 0.00 0.00 0.00 59 1013.4
20260901171539 66 327 3.0 9.0 0.00 0.00 0.00 59 1013.5
20260901171038 66 270 4.0 9.0 0.00 0.00 0.00 61 1013.4
20260901170536 66 267 5.0 9.0 0.00 0.00 0.00 60 1013.5
20260901170036 65 343 3.0 9.0 0.00 0.00 0.00 61 1013.5
20260901165533 65 294 5.0 9.0 0.00 0.00 0.00 61 1013.4
20260901165032 65 245 5.0 8.0 0.00 0.00 0.00 61 1013.4
20260901164531 65 345 2.0 10.0 0.00 0.00 0.00 62 1013.4
20260901164030 65 345 5.0 11.0 0.00 0.00 0.00 62 1013.4
20260901163527 64 268 6.0 11.0 0.00 0.00 0.00 62 1013.3
20260901163026 64 278 2.0 9.0 0.00 0.00 0.00 63 1013.3
20260901162526 64 263 3.0 12.0 0.00 0.00 0.00 63 1013.2
20260901162023 64 256 6.0 9.0 0.00 0.00 0.00 64 1013.1
20260901161534 64 252 3.0 8.0 0.00 0.00 0.00 65 1013.1
20260901161023 63 270 3.0 11.0 0.00 0.00 0.00 65 1013.0
20260901160520 63 253 6.0 11.0 0.00 0.00 0.00 65 1013.0
20260901160033 63 253 3.0 10.0 0.00 0.00 0.00 66 1013.1
20260901155517 63 332 4.0 10.0 0.00 0.00 0.00 66 1013.1
20260901155020 63 255 5.0 8.0 0.00 0.00 0.00 67 1013.0
20260901154513 62 322 1.0 9.0 0.00 0.00 0.00 69 1013.0
20260901154012 62 308 3.0 9.0 0.00 0.00 0.00 69 1012.9
20260901153511 61 320 3.0 9.0 0.00 0.00 0.00 70 1012.9
20260901153009 61 346 2.0 9.0 0.00 0.00 0.00 71 1012.7
20260901152508 61 344 4.0 8.0 0.00 0.00 0.00 71 1012.7
20260901152008 61 324 3.0 9.0 0.00 0.00 0.00 72 1012.5
20260901151507 60 354 3.0 9.0 0.00 0.00 0.00 72 1012.4
20260901151008 60 310 1.0 5.0 0.00 0.00 0.00 73 1012.4
20260901150505 60 36 2.0 6.0 0.00 0.00 0.00 74 1012.3
20260901150005 59 336 2.0 8.0 0.00 0.00 0.00 74 1012.2
20260901145503 59 330 4.0 8.0 0.00 0.00 0.00 75 1012.2
20260901145002 59 338 3.0 8.0 0.00 0.00 0.00 75 1012.3
20260901144600 59 338 2.0 6.0 0.00 0.00 0.00 76 1012.2
20260901144101 58 320 2.0 6.0 0.00 0.00 0.00 76 1012.2
20260901143557 58 4 3.0 8.0 0.00 0.00 0.00 77 1012.1
20260901143058 58 354 3.0 9.0 0.00 0.00 0.00 77 1012.0
20260901142555 58 317 3.0 9.0 0.00 0.00 0.00 78 1012.0
20260901142053 57 331 3.0 8.0 0.00 0.00 0.00 78 1012.0
20260901141554 57 330 2.0 5.0 0.00 0.00 0.00 79 1011.9
20260901141054 57 349 3.0 5.0 0.00 0.00 0.00 79 1011.9
20260901140552 57 334 2.0 4.0 0.00 0.00 0.00 79 1011.9
20260901140049 57 337 2.0 4.0 0.00 0.00 0.00 79 1011.9
20260901135548 57 335 2.0 8.0 0.00 0.00 0.00 78 1011.8
20260901135052 57 337 2.0 5.0 0.00 0.00 0.00 79 1011.8
20260901134601 57 332 2.0 8.0 0.00 0.00 0.00 78 1011.7
20260901134045 57 336 3.0 8.0 0.00 0.00 0.00 79 1011.7
20260901133548 57 343 2.0 6.0 0.00 0.00 0.00 79 1011.7
20260901133045 57 335 2.0 8.0 0.00 0.00 0.00 78 1011.6
20260901132545 57 333 3.0 8.0 0.00 0.00 0.00 79 1011.6
20260901132045 57 335 2.0 6.0 0.00 0.00 0.00 78 1011.6
20260901131543 57 326 2.0 6.0 0.00 0.00 0.00 78 1011.5
20260901131044 57 344 1.0 8.0 0.00 0.00 0.00 78 1011.5
20260901130546 57 292 3.0 8.0 0.00 0.00 0.00 78 1011.4
20260901130043 57 333 2.0 6.0 0.00 0.00 0.00 78 1011.5
20260901125543 57 345 2.0 6.0 0.00 0.00 0.00 78 1011.5
20260901125043 57 343 2.0 7.0 0.00 0.00 0.00 78 1011.5
20260901124553 58 347 2.0 7.0 0.00 0.00 0.00 77 1011.5
20260901124041 58 343 3.0 6.0 0.00 0.00 0.00 77 1011.5
20260901123540 58 302 3.0 8.0 0.00 0.00 0.00 77 1011.3
20260901123039 58 289 3.0 8.0 0.00 0.00 0.00 77 1011.2
20260901122540 58 307 3.0 8.0 0.00 0.00 0.00 77 1011.0
20260901122037 58 290 3.0 8.0 0.00 0.00 0.00 76 1011.0
20260901121536 58 307 3.0 6.0 0.00 0.00 0.00 76 1011.0
20260901121036 58 337 4.0 8.0 0.00 0.00 0.00 76 1010.9
20260901120536 58 328 3.0 8.0 0.00 0.00 0.00 76 1010.8
20260901120049 58 318 3.0 8.0 0.00 0.00 0.00 75 1010.8
20260901115534 58 354 3.0 8.0 0.00 0.00 0.00 75 1010.7
20260901115034 59 354 3.0 8.0 0.00 0.00 0.00 74 1010.6
20260901114539 59 345 3.0 9.0 0.00 0.00 0.00 75 1010.5
20260901114031 59 336 4.0 9.0 0.00 0.00 0.00 75 1010.5
20260901113534 59 332 3.0 8.0 0.00 0.00 0.00 75 1010.3
20260901113055 59 328 3.0 8.0 0.00 0.00 0.00 75 1010.3
20260901112530 59 323 3.0 7.0 0.00 0.00 0.00 75 1010.4
20260901112030 59 297 3.0 9.0 0.00 0.00 0.00 74 1010.4
20260901111530 59 291 3.0 9.0 0.00 0.00 0.00 74 1010.3
20260901111029 59 359 4.0 9.0 0.00 0.00 0.00 74 1010.3
20260901110528 59 329 3.0 6.0 0.00 0.00 0.00 74 1010.2
20260901110028 59 307 3.0 11.0 0.00 0.00 0.00 75 1010.3
20260901105528 59 303 4.0 11.0 0.00 0.00 0.00 75 1010.2
20260901105027 59 312 4.0 11.0 0.00 0.00 0.00 74 1010.2
20260901104529 59 270 5.0 11.0 0.00 0.00 0.00 74 1010.1
20260901104028 59 328 3.0 9.0 0.00 0.00 0.00 74 1010.0
20260901103525 59 300 4.0 10.0 0.00 0.00 0.00 75 1010.0
20260901103025 59 324 3.0 10.0 0.00 0.00 0.00 75 1010.0
20260901102524 59 312 3.0 10.0 0.00 0.00 0.00 75 1010.0
20260901102024 59 299 4.0 10.0 0.00 0.00 0.00 74 1010.1
20260901101532 59 339 4.0 8.0 0.00 0.00 0.00 74 1010.0
20260901101022 59 264 3.0 9.0 0.00 0.00 0.00 74 1010.1
20260901100521 59 318 3.0 8.0 0.00 0.00 0.00 74 1010.1
20260901100020 59 299 3.0 8.0 0.00 0.00 0.00 74 1010.2
20260901095519 59 314 3.0 9.0 0.00 0.00 0.00 74 1010.2
20260901095019 60 318 3.0 9.0 0.00 0.00 0.00 74 1010.2
20260901094518 60 295 4.0 9.0 0.00 0.00 0.00 74 1010.1
20260901094016 60 271 4.0 9.0 0.00 0.00 0.00 74 1010.1
20260901093516 60 341 4.0 10.0 0.00 0.00 0.00 74 1010.1
20260901093020 60 332 2.0 11.0 0.00 0.00 0.00 74 1009.9
20260901092513 60 324 6.0 11.0 0.00 0.00 0.00 74 1009.9
20260901092012 60 295 4.0 12.0 0.00 0.00 0.00 74 1009.7
20260901091512 60 11 2.0 12.0 0.00 0.00 0.00 74 1009.7
20260901091011 60 341 4.0 15.0 0.00 0.00 0.00 74 1009.5
20260901090511 60 335 5.0 15.0 0.00 0.00 0.00 74 1009.8
20260901090013 60 324 3.0 10.0 0.00 0.00 0.00 74 1009.8
20260901085510 60 335 3.0 12.0 0.00 0.00 0.00 74 1009.9
20260901085008 61 336 5.0 15.0 0.00 0.00 0.00 73 1009.8
20260901084524 61 326 7.0 15.0 0.00 0.00 0.00 73 1009.9
20260901084010 61 333 4.0 10.0 0.00 0.00 0.00 73 1009.9
20260901083509 61 307 3.0 11.0 0.00 0.00 0.00 73 1009.9
20260901083005 61 327 6.0 11.0 0.00 0.00 0.00 73 1010.0
20260901082503 61 299 3.0 13.0 0.00 0.00 0.00 72 1010.0
20260901082003 61 349 5.0 13.0 0.00 0.00 0.00 72 1009.9
20260901081504 61 339 3.0 11.0 0.00 0.00 0.00 72 1009.9
20260901081005 61 330 3.0 11.0 0.00 0.00 0.00 71 1010.0
20260901080503 61 323 4.0 10.0 0.00 0.00 0.00 71 1010.0
20260901080003 61 335 4.0 11.0 0.00 0.00 0.00 71 1009.9
20260901075503 61 337 4.0 11.0 0.00 0.00 0.00 71 1009.9
20260901075004 61 345 5.0 15.0 0.00 0.00 0.00 71 1010.0
20260901074605 61 341 5.0 15.0 0.00 0.00 0.00 71 1009.9
20260901074058 62 310 6.0 14.0 0.00 0.00 0.00 71 1009.9
20260901073558 62 336 6.0 12.0 0.00 0.00 0.00 71 1009.9
20260901073103 62 296 5.0 11.0 0.00 0.00 0.00 71 1009.8
20260901072557 62 340 6.0 13.0 0.00 0.00 0.00 71 1009.8
20260901072059 62 308 5.0 13.0 0.00 0.00 0.00 71 1009.8
20260901071557 62 4 4.0 10.0 0.00 0.00 0.00 71 1009.8
20260901071057 62 327 3.0 10.0 0.00 0.00 0.00 71 1009.8
20260901070559 62 332 3.0 11.0 0.00 0.00 0.00 71 1009.8
20260901070101 63 313 6.0 11.0 0.00 0.00 0.00 71 1009.8
20260901065553 63 333 3.0 13.0 0.00 0.00 0.00 70 1009.8
20260901065052 63 322 5.0 13.0 0.00 0.00 0.00 70 1009.7
20260901064552 63 317 6.0 11.0 0.00 0.00 0.00 70 1009.7
20260901064051 63 307 5.0 12.0 0.00 0.00 0.00 70 1009.7
20260901063550 63 315 5.0 11.0 0.00 0.00 0.00 69 1009.6
20260901063050 63 290 4.0 12.0 0.00 0.00 0.00 69 1009.5
20260901062550 63 275 6.0 14.0 0.00 0.00 0.00 69 1009.6
20260901062052 63 314 5.0 14.0 0.00 0.00 0.00 69 1009.5
20260901061550 63 335 4.0 12.0 0.00 0.00 0.00 68 1009.5
20260901061049 64 278 6.0 12.0 0.00 0.00 0.00 68 1009.3
20260901060549 64 259 5.0 13.0 0.00 0.00 0.00 68 1009.3
20260901060049 64 313 5.0 13.0 0.00 0.00 0.00 67 1009.3
20260901055550 64 343 5.0 12.0 0.00 0.00 0.00 67 1009.3
20260901055048 64 303 4.0 11.0 0.00 0.00 0.00 67 1009.3
20260901054550 65 324 5.0 16.0 0.00 0.00 0.00 66 1009.2
20260901054048 65 324 4.0 16.0 0.00 0.00 0.00 65 1009.2
20260901053549 65 266 6.0 14.0 0.00 0.00 0.00 65 1009.2
20260901053105 65 299 7.0 15.0 0.00 0.00 0.00 65 1009.1
20260901052547 66 289 6.0 14.0 0.00 0.00 0.00 64 1009.2
20260901052046 66 331 7.0 14.0 0.00 0.00 0.00 63 1009.0
20260901051548 66 296 4.0 15.0 0.00 0.00 0.00 63 1009.0
20260901051046 66 291 7.0 16.0 0.00 0.00 0.00 63 1009.0
20260901050547 67 296 8.0 17.0 0.00 0.00 0.00 62 1008.9
20260901050046 67 290 7.0 17.0 0.00 0.00 0.00 62 1008.8
20260901045545 68 315 6.0 13.0 0.00 0.00 0.00 61 1008.8
20260901045049 68 297 5.0 12.0 0.00 0.00 0.00 60 1008.9
20260901044614 68 307 4.0 10.0 0.00 0.00 0.00 59 1008.8
20260901044044 69 337 5.0 10.0 0.00 0.00 0.00 59 1008.7
20260901043544 69 338 3.0 12.0 0.00 0.00 0.00 58 1008.6
20260901043044 69 323 6.0 12.0 0.00 0.00 0.00 57 1008.5
20260901042543 70 4 7.0 14.0 0.00 0.00 0.00 57 1008.5
20260901042043 70 230 8.0 15.0 0.00 0.00 0.00 56 1008.4
20260901041543 70 319 7.0 15.0 0.00 0.00 0.00 55 1008.4
20260901041045 71 339 6.0 14.0 0.00 0.00 0.00 54 1008.3
20260901040544 71 343 5.0 12.0 0.00 0.00 0.00 53 1008.1